Weather in Pozarikha

Russia / Sverdlovsk Oblast     56°27′33″N   61°53′04″E
temp.,
°C
wind,
m/s
gust,
m/s
humid.,
%
clouds,
%
prec.,
mm/h
press.,
hPa
HPBL,
m
28 february, sun
sun2823:00−17ese61394100 1.1 1015558
02:00−15ese61295100 0.4 1012555
05:00−15ese51095100 0.8 1012432
08:00−16e4995100 0.2 1011378
11:00−15e5893100 0.3 1010398
14:00−13ene5792100 0.1 1010486
17:00−14ene5892100 0.2 1010490
20:00−15ne4895100 0.1 1011411
1 march, mon
mon123:00−17ne4895100 0.2 1012322
02:00−18nne489699 0.1 1013279
05:00−19nne4797100 0.1 1014255
08:00−20nne4797100 0.1 1016248
11:00−18n3595100 0.1 1017312
14:00−15nne3489100 0.1 1017395
17:00−14n2391100 0.2 1017354
20:00−17nne119799 0.1 101820
2 march, tue
tue223:00−18ssw119794 0.1 101820
02:00−20sw2210073 0.0 101720
05:00−21sw239980 0.1 101620
08:00−20ssw239972 0.0 101536
11:00−16sw249271 0.0 1014218
14:00−12ssw358979 0.0 1011414
17:00−11s589190 0.0 1010442
20:00−16s479894 0.0 1009134
3 march, wed
wed323:00−16s489795 0.0 1008156
02:00−14s4795100 0.0 1007199
05:00−14s3696100 0.2 1006177
08:00−14sse3596100 0.2 1005139
11:00−11sse4695100 0.3 1004255
14:00−8s5893100 0.1 1003412
17:00−6s51093100 0.1 1002609
20:00−6sse51095100 0.3 1000366
4 march, thu
thu423:00−5s41096100 0.7 999379
02:00−5sse3597100 0.9 997212
05:00−5se1297100 1.7 99647
08:00−5nnw3597100 1.0 996155
11:00−7nnw61094100 1.7 997421
14:00−6nw61088100 0.3 999653
17:00−6nw5886100 0.4 1001872
20:00−10wnw4994100 0.0 1004157